Time,TemperatureF,DewpointF,PressureIn,WindDirection,WindDirectionDegrees,WindSpeedMPH,WindSpeedGustMPH,Humidity,HourlyPrecipIn,Conditions,Clouds,dailyrainin,SolarRadiationWatts/m^2,SoftwareType,DateUTC
2013-06-29 00:02:00,65.0,59.0,-100.00,East,96,0.0,6.0,80,0.00,,,0.00,0.000000,,2013-06-29 07:02:00,
2013-06-29 00:33:00,64.0,58.0,-100.00,ENE,74,0.0,5.0,82,0.00,,,0.00,0.000000,,2013-06-29 07:33:00,
2013-06-29 00:43:00,64.0,58.0,-100.00,ENE,74,0.0,5.0,82,0.00,,,0.00,0.000000,,2013-06-29 07:43:00,
2013-06-29 00:53:00,64.0,58.0,-100.00,ENE,74,0.0,5.0,82,0.00,,,0.00,0.000000,,2013-06-29 07:53:00,
2013-06-29 01:01:00,64.0,58.0,-100.00,ENE,74,0.0,5.0,82,0.00,,,0.00,0.000000,,2013-06-29 08:01:00,
2013-06-29 01:33:00,65.0,60.0,-100.00,East,80,1.0,7.0,84,0.00,,,0.00,0.000000,,2013-06-29 08:33:00,
2013-06-29 01:43:00,65.0,60.0,-100.00,East,80,1.0,7.0,84,0.00,,,0.00,0.000000,,2013-06-29 08:43:00,
2013-06-29 01:52:00,65.0,60.0,-100.00,East,80,1.0,7.0,84,0.00,,,0.00,0.000000,,2013-06-29 08:52:00,
2013-06-29 02:02:00,65.0,60.0,-100.00,East,80,1.0,7.0,84,0.00,,,0.00,0.000000,,2013-06-29 09:02:00,
2013-06-29 02:33:00,62.0,58.0,-100.00,ENE,75,0.0,7.0,86,0.00,,,0.00,0.000000,,2013-06-29 09:33:00,
2013-06-29 02:42:00,62.0,58.0,-100.00,ENE,75,0.0,7.0,86,0.00,,,0.00,0.000000,,2013-06-29 09:42:00,
2013-06-29 02:53:00,62.0,58.0,-100.00,ENE,75,0.0,7.0,86,0.00,,,0.00,0.000000,,2013-06-29 09:53:00,
2013-06-29 03:01:00,62.0,58.0,-100.00,ENE,75,0.0,7.0,86,0.00,,,0.00,0.000000,,2013-06-29 10:01:00,
2013-06-29 03:33:00,62.0,58.0,-100.00,ENE,60,2.0,5.0,86,0.00,,,0.00,0.000000,,2013-06-29 10:33:00,
2013-06-29 03:43:00,62.0,58.0,-100.00,ENE,60,2.0,5.0,86,0.00,,,0.00,0.000000,,2013-06-29 10:43:00,
2013-06-29 03:53:00,62.0,58.0,-100.00,ENE,60,2.0,5.0,86,0.00,,,0.00,0.000000,,2013-06-29 10:53:00,
2013-06-29 04:01:00,62.0,58.0,-100.00,ENE,60,2.0,5.0,86,0.00,,,0.00,0.000000,,2013-06-29 11:01:00,
2013-06-29 04:33:00,63.0,59.0,-100.00,North,8,3.0,7.0,86,0.00,,,0.00,0.000000,,2013-06-29 11:33:00,
2013-06-29 04:43:00,63.0,59.0,-100.00,North,8,3.0,7.0,86,0.00,,,0.00,0.000000,,2013-06-29 11:43:00,
2013-06-29 04:53:00,63.0,59.0,-100.00,North,8,3.0,7.0,86,0.00,,,0.00,0.000000,,2013-06-29 11:53:00,
2013-06-29 05:02:00,63.0,59.0,-100.00,North,8,3.0,7.0,86,0.00,,,0.00,0.000000,,2013-06-29 12:02:00,
2013-06-29 05:34:00,63.0,59.0,-100.00,NE,39,3.0,10.0,87,0.00,,,0.00,0.000000,,2013-06-29 12:34:00,
2013-06-29 05:43:00,63.0,59.0,-100.00,NE,39,3.0,10.0,87,0.00,,,0.00,0.000000,,2013-06-29 12:43:00,
2013-06-29 05:53:00,63.0,59.0,-100.00,NE,39,3.0,10.0,87,0.00,,,0.00,0.000000,,2013-06-29 12:53:00,
2013-06-29 06:02:00,63.0,59.0,-100.00,NE,39,3.0,10.0,87,0.00,,,0.00,0.000000,,2013-06-29 13:02:00,
2013-06-29 06:43:00,65.0,61.0,-100.00,NNE,30,0.0,12.0,87,0.00,,,0.00,37.000000,,2013-06-29 13:43:00,
2013-06-29 06:53:00,65.0,61.0,-100.00,NNE,30,0.0,12.0,87,0.00,,,0.00,37.000000,,2013-06-29 13:53:00,
2013-06-29 07:02:00,65.0,61.0,-100.00,NNE,30,0.0,12.0,87,0.00,,,0.00,37.000000,,2013-06-29 14:02:00,
2013-06-29 07:44:00,66.0,60.0,-100.00,North,349,1.0,8.0,81,0.00,,,0.00,211.000000,,2013-06-29 14:44:00,
2013-06-29 07:53:00,66.0,60.0,-100.00,North,349,1.0,8.0,81,0.00,,,0.00,211.000000,,2013-06-29 14:53:00,
2013-06-29 08:01:00,66.0,60.0,-100.00,North,349,1.0,8.0,81,0.00,,,0.00,211.000000,,2013-06-29 15:01:00,
2013-06-29 08:42:00,73.0,61.0,-100.00,NW,305,3.0,9.0,65,0.00,,,0.00,508.000000,,2013-06-29 15:42:00,
2013-06-29 08:53:00,73.0,61.0,-100.00,NW,305,3.0,9.0,65,0.00,,,0.00,508.000000,,2013-06-29 15:53:00,
2013-06-29 09:01:00,73.0,61.0,-100.00,NW,305,3.0,9.0,65,0.00,,,0.00,508.000000,,2013-06-29 16:01:00,
2013-06-29 09:34:00,74.0,60.0,-100.00,ENE,70,3.0,14.0,61,0.00,,,0.00,617.000000,,2013-06-29 16:34:00,
2013-06-29 09:43:00,74.0,60.0,-100.00,ENE,70,3.0,14.0,61,0.00,,,0.00,617.000000,,2013-06-29 16:43:00,
2013-06-29 09:53:00,74.0,60.0,-100.00,ENE,70,3.0,14.0,61,0.00,,,0.00,617.000000,,2013-06-29 16:53:00,
2013-06-29 10:01:00,74.0,60.0,-100.00,ENE,70,3.0,14.0,61,0.00,,,0.00,617.000000,,2013-06-29 17:01:00,
2013-06-29 10:34:00,74.0,59.0,-100.00,NNW,334,2.0,12.0,59,0.00,,,0.00,748.000000,,2013-06-29 17:34:00,
2013-06-29 10:42:00,74.0,59.0,-100.00,NNW,334,2.0,12.0,59,0.00,,,0.00,748.000000,,2013-06-29 17:42:00,
2013-06-29 10:52:00,74.0,59.0,-100.00,NNW,334,2.0,12.0,59,0.00,,,0.00,748.000000,,2013-06-29 17:52:00,
2013-06-29 11:01:00,74.0,59.0,-100.00,NNW,334,2.0,12.0,59,0.00,,,0.00,748.000000,,2013-06-29 18:01:00,
2013-06-29 12:34:00,76.0,57.0,-100.00,ENE,67,1.0,11.0,51,-99.99,,,-99.99,163.000000,,2013-06-29 19:34:00,
2013-06-29 12:43:00,76.0,57.0,-100.00,ENE,67,1.0,11.0,51,-99.99,,,-99.99,163.000000,,2013-06-29 19:43:00,
2013-06-29 12:54:00,76.0,57.0,-100.00,ENE,67,1.0,11.0,51,-99.99,,,-99.99,163.000000,,2013-06-29 19:54:00,
2013-06-29 13:01:00,76.0,57.0,-100.00,ENE,67,1.0,11.0,51,-99.99,,,-99.99,163.000000,,2013-06-29 20:01:00,
2013-06-29 13:33:00,80.0,55.0,-100.00,WSW,257,3.0,11.0,43,0.00,,,0.00,1042.000000,,2013-06-29 20:33:00,
2013-06-29 13:43:00,80.0,55.0,-100.00,WSW,257,3.0,11.0,43,0.00,,,0.00,1042.000000,,2013-06-29 20:43:00,
2013-06-29 13:52:00,80.0,55.0,-100.00,WSW,257,3.0,11.0,43,0.00,,,0.00,1042.000000,,2013-06-29 20:52:00,
2013-06-29 14:01:00,80.0,55.0,-100.00,WSW,257,3.0,11.0,43,0.00,,,0.00,1042.000000,,2013-06-29 21:01:00,
2013-06-29 14:32:00,82.0,59.0,-100.00,SE,125,2.0,12.0,46,0.00,,,0.00,1235.000000,,2013-06-29 21:32:00,
2013-06-29 14:42:00,82.0,59.0,-100.00,SE,125,2.0,12.0,46,0.00,,,0.00,1235.000000,,2013-06-29 21:42:00,
2013-06-29 14:52:00,82.0,59.0,-100.00,SE,125,2.0,12.0,46,0.00,,,0.00,1235.000000,,2013-06-29 21:52:00,
2013-06-29 15:01:00,82.0,59.0,-100.00,SE,125,2.0,12.0,46,0.00,,,0.00,1235.000000,,2013-06-29 22:01:00,
2013-06-29 15:33:00,85.0,58.0,-100.00,SSE,165,3.0,10.0,40,0.00,,,0.00,1062.000000,,2013-06-29 22:33:00,
2013-06-29 15:43:00,85.0,58.0,-100.00,SSE,165,3.0,10.0,40,0.00,,,0.00,1062.000000,,2013-06-29 22:43:00,
2013-06-29 15:53:00,85.0,58.0,-100.00,SSE,165,3.0,10.0,40,0.00,,,0.00,1062.000000,,2013-06-29 22:53:00,
2013-06-29 16:02:00,85.0,58.0,-100.00,SSE,165,3.0,10.0,40,0.00,,,0.00,1062.000000,,2013-06-29 23:02:00,
2013-06-29 16:34:00,85.0,56.0,-100.00,ESE,123,4.0,10.0,37,0.00,,,0.00,926.000000,,2013-06-29 23:34:00,
2013-06-29 16:43:00,85.0,56.0,-100.00,ESE,123,4.0,10.0,37,0.00,,,0.00,926.000000,,2013-06-29 23:43:00,
2013-06-29 16:52:00,85.0,56.0,-100.00,ESE,123,4.0,10.0,37,0.00,,,0.00,926.000000,,2013-06-29 23:52:00,
2013-06-29 17:01:00,85.0,56.0,-100.00,ESE,123,4.0,10.0,37,0.00,,,0.00,926.000000,,2013-06-30 00:01:00,
2013-06-29 17:34:00,84.0,53.0,-100.00,SSW,194,3.0,11.0,35,0.00,,,0.00,741.000000,,2013-06-30 00:34:00,
2013-06-29 17:43:00,84.0,53.0,-100.00,SSW,194,3.0,11.0,35,0.00,,,0.00,741.000000,,2013-06-30 00:43:00,
2013-06-29 17:52:00,84.0,53.0,-100.00,SSW,194,3.0,11.0,35,0.00,,,0.00,741.000000,,2013-06-30 00:52:00,
2013-06-29 18:01:00,84.0,53.0,-100.00,SSW,194,3.0,11.0,35,0.00,,,0.00,741.000000,,2013-06-30 01:01:00,
2013-06-29 18:33:00,81.0,50.0,-100.00,NE,53,4.0,14.0,34,0.00,,,0.00,536.000000,,2013-06-30 01:33:00,
2013-06-29 18:44:00,81.0,50.0,-100.00,NE,53,4.0,14.0,34,0.00,,,0.00,536.000000,,2013-06-30 01:44:00,
2013-06-29 18:53:00,81.0,50.0,-100.00,NE,53,4.0,14.0,34,0.00,,,0.00,536.000000,,2013-06-30 01:53:00,
2013-06-29 19:02:00,81.0,50.0,-100.00,NE,53,4.0,14.0,34,0.00,,,0.00,536.000000,,2013-06-30 02:02:00,
2013-06-29 19:34:00,77.0,47.0,-100.00,SE,146,3.0,12.0,35,0.00,,,0.00,325.000000,,2013-06-30 02:34:00,
2013-06-29 19:43:00,77.0,47.0,-100.00,SE,146,3.0,12.0,35,0.00,,,0.00,325.000000,,2013-06-30 02:43:00,
2013-06-29 19:53:00,77.0,47.0,-100.00,SE,146,3.0,12.0,35,0.00,,,0.00,325.000000,,2013-06-30 02:53:00,
2013-06-29 20:01:00,77.0,47.0,-100.00,SE,146,3.0,12.0,35,0.00,,,0.00,325.000000,,2013-06-30 03:01:00,
2013-06-29 20:34:00,71.0,47.0,-100.00,NNE,19,2.0,10.0,43,0.00,,,0.00,15.000000,,2013-06-30 03:34:00,
2013-06-29 20:43:00,71.0,47.0,-100.00,NNE,19,2.0,10.0,43,0.00,,,0.00,15.000000,,2013-06-30 03:43:00,
2013-06-29 20:53:00,71.0,47.0,-100.00,NNE,19,2.0,10.0,43,0.00,,,0.00,15.000000,,2013-06-30 03:53:00,
2013-06-29 21:01:00,71.0,47.0,-100.00,NNE,19,2.0,10.0,43,0.00,,,0.00,15.000000,,2013-06-30 04:01:00,
2013-06-29 21:43:00,64.0,49.0,-100.00,SSW,206,0.0,10.0,58,0.00,,,0.00,2.000000,,2013-06-30 04:43:00,
2013-06-29 21:53:00,64.0,49.0,-100.00,SSW,206,0.0,10.0,58,0.00,,,0.00,2.000000,,2013-06-30 04:53:00,
2013-06-29 22:02:00,64.0,49.0,-100.00,SSW,206,0.0,10.0,58,0.00,,,0.00,2.000000,,2013-06-30 05:02:00,
2013-06-29 22:34:00,63.0,48.0,-100.00,East,80,2.0,10.0,58,0.00,,,0.00,0.000000,,2013-06-30 05:34:00,
2013-06-29 22:43:00,63.0,48.0,-100.00,East,80,2.0,10.0,58,0.00,,,0.00,0.000000,,2013-06-30 05:43:00,
2013-06-29 22:53:00,63.0,48.0,-100.00,East,80,2.0,10.0,58,0.00,,,0.00,0.000000,,2013-06-30 05:53:00,
2013-06-29 23:02:00,63.0,48.0,-100.00,East,80,2.0,10.0,58,0.00,,,0.00,0.000000,,2013-06-30 06:02:00,
2013-06-29 23:34:00,63.0,44.0,-100.00,East,84,0.0,9.0,49,0.00,,,0.00,0.000000,,2013-06-30 06:34:00,
2013-06-29 23:43:00,63.0,44.0,-100.00,East,84,0.0,9.0,49,0.00,,,0.00,0.000000,,2013-06-30 06:43:00,
2013-06-29 23:53:00,63.0,44.0,-100.00,East,84,0.0,9.0,49,0.00,,,0.00,0.000000,,2013-06-30 06:53:00,